GFSFLT2_925_spd_000.txt.gz
Wind_Speed
30 29 29 28 32 28 28 28 28 37 41 46 44 42 42 43 44 45 42 43 43 42 41 41 40 42 43
32 29 29 31 25 27 29 32 33 35 39 38 41 42 43 42 41 39 35 37 39 39 39 37 37 37 39
28 31 34 24 25 29 32 34 33 34 35 35 36 37 37 36 33 38 40 38 39 38 38 37 39 39 39
24 29 21 28 27 29 32 30 34 31 32 33 33 36 35 40 41 40 37 36 37 36 36 35 35 37 39
25 23 19 26 24 29 29 33 31 22 34 36 27 31 36 36 36 35 34 35 36 34 36 37 37 34 34
17 18 24 26 29 29 29 13 17 32 22 34 30 34 32 33 35 37 39 40 39 38 38 39 39 36 35
25 26 28 30 28 29 29 26 23 33 30 28 29 30 33 34 36 37 38 38 39 39 39 39 39 39 40
27 28 29 33 35 30 29 31 29 30 27 13 29 30 34 34 37 38 37 36 36 36 35 33 31 33 31
26 30 34 31 31 31 23 20 12 23 29 24 28 28 32 35 37 34 31 33 36 37 38 37 35 32 31
29 29 29 29 29 27 26 18 13 13 26 19 25 22 9 27 19 28 31 32 33 36 38 36 34 32 26
27 28 27 26 28 28 28 27 23 20 33 29 23 24 15 10 28 29 30 29 32 35 32 30 31 31 28
25 25 27 28 29 31 33 34 33 33 39 36 24 23 18 12 13 25 31 33 29 30 29 29 28 28 30
24 26 27 31 33 31 30 30 30 32 32 31 28 28 23 15 11 21 19 21 29 24 27 24 23 19 17
25 29 29 28 28 27 27 29 25 27 26 22 25 26 21 19 17 18 22 7 28 29 24 22 17 10 13
26 27 27 27 27 27 25 25 19 18 20 25 27 26 22 17 9 17 21 23 21 20 16 13 16 18 17
27 26 25 25 26 26 24 21 17 18 18 21 23 19 12 8 12 18 15 13 21 19 17 9 16 28 26
27 26 25 25 25 24 23 20 18 16 18 20 17 6 4 4 9 20 18 18 17 18 18 16 11 24 33

GFSFLT2_925_spd_003.txt.gz
Wind_Speed
30 28 31 30 30 30 28 22 29 33 38 44 44 40 41 40 41 41 42 43 44 45 46 44 45 45 45
34 34 31 31 31 30 27 26 29 32 37 38 37 38 36 36 36 37 38 39 37 36 35 38 41 41 41
29 34 31 30 32 26 31 29 28 32 35 33 31 33 36 41 41 41 38 39 39 38 37 38 39 41 42
28 24 32 27 25 26 31 29 30 31 30 28 37 38 35 35 38 39 40 40 39 38 38 38 40 42 42
25 22 21 24 24 27 28 31 27 28 32 34 29 31 34 35 36 36 35 36 37 37 38 39 39 40 38
18 20 27 27 29 28 26 23 14 29 22 33 32 32 32 32 34 35 37 38 38 39 39 40 41 39 39
29 27 28 29 28 29 27 24 25 34 28 28 31 32 33 34 36 37 38 38 39 38 38 39 39 40 41
28 30 29 33 34 30 29 30 29 30 25 13 29 31 34 35 37 38 37 34 34 35 37 38 37 37 39
27 31 34 31 30 29 22 21 14 24 27 25 28 29 32 36 36 32 31 33 37 38 38 39 38 39 38
29 30 29 29 27 26 26 19 16 14 21 20 26 23 10 30 24 33 32 33 35 35 36 36 36 35 34
26 28 27 26 27 27 28 27 25 22 32 29 24 26 16 14 28 29 31 31 32 33 34 33 34 34 31
25 25 26 28 30 32 33 33 32 33 39 36 25 25 20 12 14 28 32 33 29 31 30 31 33 34 34
23 26 28 31 33 31 30 29 29 31 31 33 30 29 24 16 12 24 22 23 29 26 28 28 26 25 25
24 28 29 28 29 28 27 29 25 28 27 25 25 26 24 24 21 20 26 7 27 31 27 24 20 16 17
25 27 28 28 28 28 25 26 19 20 25 26 28 28 26 25 12 18 21 24 23 23 20 17 15 20 17
27 26 26 26 27 27 24 21 18 21 21 23 25 24 18 9 11 18 21 17 24 23 21 10 12 26 29
26 26 25 26 26 25 23 21 20 19 20 22 19 11 8 7 9 19 21 21 23 21 23 20 11 23 34

GFSFLT2_925_spd_006.txt.gz
Wind_Speed
31 30 33 33 30 29 29 29 31 27 36 42 42 42 43 44 43 42 40 40 39 40 41 42 43 44 46
32 33 33 32 33 31 29 27 29 32 35 37 40 42 41 38 37 38 38 40 41 42 40 40 38 40 43
31 34 35 30 31 28 29 31 30 30 34 35 36 37 37 38 43 42 41 40 40 41 40 39 39 39 39
27 30 24 23 28 28 29 28 31 30 33 36 35 36 37 37 38 39 40 39 39 40 41 41 41 41 42
19 18 27 27 25 29 29 32 32 31 33 32 30 31 34 36 36 36 36 35 37 37 38 39 39 40 41
25 23 23 28 31 28 27 27 15 26 23 34 31 32 32 33 34 34 36 39 39 38 38 39 40 41 41
28 27 29 30 29 30 29 27 28 34 30 30 31 32 33 34 35 36 37 38 38 39 38 39 39 39 40
28 31 29 34 33 30 31 32 32 32 26 13 31 32 35 35 37 38 36 35 35 35 35 36 36 37 39
24 31 33 30 29 29 24 23 14 26 29 24 27 30 34 37 34 28 30 34 36 35 35 36 37 39 42
31 31 30 30 27 25 26 21 19 13 23 21 28 23 9 27 24 33 30 32 33 34 34 35 36 37 33
26 28 27 27 28 27 27 27 26 24 35 31 23 27 15 17 27 27 30 31 31 34 33 32 32 34 34
25 25 26 28 30 32 34 33 31 33 41 38 25 26 22 13 14 25 33 33 28 30 29 31 32 34 37
23 26 27 31 33 30 31 31 31 32 31 30 30 30 25 19 12 27 25 25 31 27 29 28 29 30 28
24 28 29 27 28 28 28 30 28 29 27 25 26 27 26 25 21 23 27 8 27 32 30 27 28 28 28
25 26 27 27 28 27 26 26 20 22 28 31 29 26 25 26 15 18 23 25 27 28 25 21 22 24 24
26 24 25 26 26 28 24 21 20 22 22 25 28 28 26 12 12 18 20 24 33 29 27 17 13 26 23
25 26 25 26 25 24 23 21 20 21 22 22 20 15 10 10 12 20 24 27 29 27 29 25 12 28 30

GFSFLT2_925_spd_009.txt.gz
Wind_Speed
31 32 32 31 31 29 28 29 31 34 37 42 41 42 42 44 45 44 44 43 42 42 42 41 41 39 41
33 32 33 33 32 31 28 30 33 33 35 36 39 41 41 41 42 42 42 40 41 42 42 42 41 42 41
32 33 31 29 28 33 31 32 31 31 33 34 36 37 39 40 41 41 41 40 40 40 40 40 40 40 41
26 23 28 32 29 30 29 30 30 31 33 34 35 36 37 39 40 40 40 39 39 39 39 40 40 41 43
22 25 27 27 26 29 29 32 32 31 31 30 31 33 36 37 37 37 36 35 36 37 37 38 39 39 40
24 23 28 27 30 27 29 28 16 26 23 36 32 34 33 34 35 35 37 38 39 39 38 39 39 40 40
29 28 28 30 27 31 29 28 28 35 32 31 32 33 32 34 36 37 38 38 38 38 38 39 39 40 41
27 30 28 31 31 28 30 31 32 32 27 15 33 32 33 35 38 37 35 34 34 34 35 36 37 38 39
25 27 33 29 25 26 24 22 16 27 30 23 26 31 34 37 31 23 29 33 34 35 35 36 37 38 41
28 27 24 24 23 20 23 20 19 12 17 21 26 24 9 19 20 33 28 29 30 32 35 36 37 37 35
24 25 24 23 23 23 23 24 24 22 34 28 22 26 16 20 30 28 30 29 30 32 31 31 33 35 35
23 24 25 26 27 30 30 29 27 31 39 34 25 26 24 16 14 25 34 32 27 28 28 31 32 34 37
23 24 24 28 31 28 29 28 28 28 29 28 27 30 26 22 14 29 26 26 30 26 30 30 31 30 28
23 27 26 26 26 26 26 27 26 27 23 23 25 26 26 26 22 24 27 9 31 33 30 31 29 31 33
24 25 26 25 27 25 24 25 20 22 25 30 26 25 25 26 20 22 24 27 29 33 32 26 27 26 28
24 23 24 24 25 27 23 20 20 22 23 26 28 26 24 14 13 18 22 24 31 33 29 22 20 28 30
24 25 24 24 25 23 23 21 20 20 22 23 21 15 11 11 18 18 18 28 27 28 29 28 16 28 28

GFSFLT2_925_spd_012.txt.gz
Wind_Speed
28 28 29 29 30 28 29 31 35 36 37 37 37 38 38 39 40 41 42 42 43 43 44 44 44 44 45
30 30 30 29 29 31 33 34 32 33 35 36 37 38 37 38 39 40 40 41 41 42 43 42 42 43 42
31 31 30 25 31 34 29 30 29 31 33 34 36 38 37 37 38 40 42 42 41 41 42 42 42 43 44
29 29 25 30 32 29 27 29 30 30 36 34 33 35 34 37 41 41 41 40 39 40 41 40 41 41 42
21 25 27 28 27 28 28 29 33 30 32 31 29 35 36 36 36 36 35 36 38 38 38 39 40 40 41
24 25 30 29 28 27 28 27 14 28 25 37 32 36 34 34 35 36 38 39 39 39 39 39 41 42 43
29 29 30 29 31 30 30 29 27 34 33 33 32 33 34 35 36 37 38 38 37 37 38 39 41 42 43
28 31 31 31 30 33 30 32 33 31 28 14 32 31 33 36 38 35 32 31 32 34 35 37 38 39 41
27 29 31 33 28 26 25 22 16 27 29 25 26 30 35 38 27 21 26 36 35 33 34 35 37 39 40
28 27 24 23 22 20 22 21 20 13 17 20 27 23 9 21 19 36 30 30 30 31 32 33 35 37 35
24 23 22 21 21 21 22 23 24 23 33 27 23 26 17 21 32 30 33 29 30 33 30 31 31 33 33
22 23 23 24 24 26 29 29 28 32 39 34 26 26 24 16 15 29 32 33 28 30 32 34 35 36 36
22 23 24 27 29 26 27 27 28 28 30 31 29 30 27 24 19 31 30 33 33 29 32 34 33 35 32
22 24 26 25 26 25 25 26 25 28 26 25 25 28 29 29 28 27 31 14 32 33 35 38 34 32 31
22 24 24 24 26 25 24 25 21 23 26 27 26 26 28 30 25 27 27 28 31 33 35 32 32 29 26
23 22 23 24 25 26 23 21 21 22 23 27 28 27 24 22 19 20 26 27 33 33 30 24 26 32 31
23 24 24 24 24 24 23 22 21 22 23 25 23 18 11 13 28 21 23 30 31 28 25 24 24 31 32

GFSFLT2_925_spd_015.txt.gz
Wind_Speed
24 24 26 28 27 27 27 32 34 36 37 34 35 36 36 37 37 37 39 39 40 40 41 40 41 41 42
25 26 24 28 28 28 27 31 36 31 32 35 36 36 37 38 37 38 38 39 40 40 41 42 41 42 42
26 26 29 27 25 28 34 27 27 30 34 36 36 39 37 36 36 37 38 40 41 41 40 41 42 42 42
26 29 27 21 27 27 25 26 29 29 34 37 33 35 35 36 40 40 39 38 38 38 38 38 39 41 41
26 26 24 26 24 24 26 28 35 27 32 36 26 35 37 36 37 37 35 35 37 37 38 39 39 39 40
23 23 28 25 25 25 29 26 12 29 20 41 31 35 35 34 34 36 37 36 36 37 37 37 39 40 41
30 24 26 28 30 31 27 27 28 35 31 37 32 34 34 36 34 35 38 37 34 33 32 34 36 37 38
25 27 29 32 31 27 30 31 34 32 25 18 33 35 34 34 40 35 30 28 27 31 36 37 37 37 39
27 32 33 31 29 26 25 22 17 28 27 27 27 30 35 39 30 23 24 32 35 32 33 33 34 35 38
30 29 26 26 24 23 23 20 21 19 23 19 25 22 7 23 21 35 31 32 31 34 31 34 36 35 33
26 25 24 24 22 24 27 25 25 28 35 29 24 27 18 23 29 32 35 35 31 36 36 35 33 33 34
22 24 24 26 26 27 31 33 32 35 41 35 27 27 26 19 16 33 36 36 32 33 35 35 36 38 39
21 24 25 28 32 30 29 29 31 32 33 33 31 31 29 26 22 32 31 37 38 33 32 33 35 36 37
23 25 27 28 28 26 27 29 27 31 30 27 28 28 28 29 29 30 33 20 33 34 34 36 37 34 35
23 25 26 25 27 27 26 26 23 25 29 31 29 30 32 32 28 31 29 30 31 34 34 33 36 31 30
26 24 24 25 27 28 26 23 22 24 25 28 30 28 28 25 23 25 28 29 31 33 33 26 29 33 33
24 26 26 26 27 26 25 24 24 24 26 28 25 20 13 14 32 19 23 31 32 29 28 27 24 34 34

GFSFLT2_925_spd_018.txt.gz
Wind_Speed
26 27 28 29 28 31 35 28 33 33 35 32 34 34 37 36 36 37 38 37 37 36 36 36 36 36 36
23 24 25 29 31 33 32 27 33 33 28 35 35 35 37 37 37 36 36 35 36 35 35 35 37 38 38
25 25 28 28 29 29 28 33 28 31 31 34 36 35 36 35 35 36 36 36 37 36 36 36 36 37 37
22 25 25 26 24 27 29 24 31 29 33 34 32 35 33 33 36 35 34 34 33 33 33 33 34 36 36
22 26 18 25 23 23 26 31 34 32 27 35 27 35 36 34 33 33 31 32 33 34 34 34 34 35 36
21 22 25 23 21 25 30 27 11 25 22 37 30 34 33 32 33 34 36 33 32 34 35 34 33 34 35
28 25 25 27 30 28 29 25 25 34 26 32 33 33 33 35 34 34 37 36 31 29 29 30 31 33 34
27 29 29 32 31 28 28 29 31 32 24 19 35 36 36 34 36 36 31 27 25 27 31 34 34 34 34
26 29 30 31 28 29 25 23 20 28 26 25 29 30 36 38 30 24 24 29 34 30 31 32 33 32 32
28 33 26 27 25 24 25 19 24 21 22 14 26 20 11 24 23 32 30 30 32 32 31 31 32 33 31
28 25 26 26 26 28 29 26 26 27 37 28 27 28 18 25 25 31 33 36 31 34 32 31 30 29 32
22 24 24 28 29 30 35 34 33 35 42 35 28 29 28 23 18 32 34 35 32 33 33 34 33 32 32
21 25 26 31 35 32 34 31 32 34 34 34 33 32 29 27 25 32 32 34 33 27 28 32 34 33 32
25 28 29 29 30 28 28 30 28 31 32 29 29 30 29 29 29 31 34 21 34 34 34 33 36 34 35
25 27 28 27 29 28 27 27 24 27 29 32 31 30 32 33 29 32 32 31 32 32 30 30 37 33 34
27 26 26 27 28 29 26 25 24 27 27 30 30 30 28 23 24 29 29 29 31 31 32 27 31 33 33
26 27 27 27 28 28 26 25 25 26 28 29 26 21 13 14 26 19 23 29 31 30 28 27 28 33 32

GFSFLT2_925_spd_021.txt.gz
Wind_Speed
20 22 25 31 30 33 32 30 29 28 30 31 29 31 33 32 33 34 35 35 34 34 34 34 34 34 34
20 23 25 29 31 33 30 27 29 30 26 31 33 31 34 33 32 33 34 34 33 32 33 34 35 35 34
23 24 26 30 30 27 27 28 28 26 32 31 32 31 30 31 32 33 33 34 33 33 33 34 34 34 35
21 23 24 27 22 26 25 25 31 31 32 31 27 30 31 31 32 31 31 31 30 30 31 32 32 32 33
17 20 20 23 22 24 27 30 32 31 31 27 27 33 33 30 30 30 28 31 33 34 33 32 31 31 31
19 20 23 23 24 25 28 27 12 25 19 29 30 31 31 31 30 32 35 34 32 34 35 33 31 30 30
24 23 24 26 31 29 24 22 25 32 29 29 30 31 31 31 32 35 35 33 31 28 28 27 27 28 29
24 28 28 27 26 26 28 27 28 30 27 21 29 33 34 31 34 33 29 27 27 27 29 32 32 31 32
22 23 25 28 25 25 23 21 20 27 31 24 22 27 31 35 28 24 24 26 32 31 29 29 31 32 33
23 30 28 27 22 21 25 21 22 17 17 11 24 22 9 23 19 30 33 28 29 32 32 31 30 31 30
27 25 25 25 25 27 26 24 25 24 37 26 22 26 19 22 22 27 33 35 31 33 32 31 30 27 28
21 22 23 28 30 30 33 30 31 34 39 34 24 28 27 23 19 27 30 34 32 32 31 32 29 30 30
20 24 25 29 33 30 33 32 33 36 35 32 32 32 29 27 25 32 31 32 35 31 28 28 31 32 31
23 26 27 26 28 27 27 28 28 32 35 30 28 30 30 30 29 31 34 20 29 32 31 32 34 32 31
22 24 25 25 27 28 26 27 23 27 31 34 33 30 31 33 30 33 32 31 32 33 29 30 34 31 32
24 24 24 26 27 28 26 25 24 27 27 31 30 29 28 26 29 33 34 30 33 32 30 26 30 32 30
24 26 27 26 27 27 26 25 25 26 29 29 26 21 12 14 27 21 24 29 31 32 29 28 27 34 32

GFSFLT2_925_spd_024.txt.gz
Wind_Speed
18 25 25 27 29 31 29 28 27 26 24 26 26 26 30 29 29 30 31 32 32 33 33 33 34 34 34
19 24 25 28 30 30 28 30 28 26 25 27 28 28 28 29 27 28 29 31 32 33 33 34 35 36 36
20 23 26 29 29 28 28 28 27 26 28 27 29 28 26 26 28 29 30 31 31 32 32 32 33 34 34
21 21 23 26 24 26 25 25 28 28 31 27 27 25 28 31 29 29 30 29 30 29 30 31 32 33 34
18 18 19 22 22 24 24 28 29 31 29 24 26 29 35 31 30 30 29 27 30 33 34 34 33 33 34
17 16 22 23 25 23 25 24 10 23 15 30 29 29 33 33 31 30 32 33 32 33 32 32 32 32 33
22 23 25 28 30 29 23 21 26 31 30 30 28 30 33 32 31 33 34 33 31 29 30 30 29 29 29
24 28 28 25 23 24 27 28 29 29 27 21 26 29 31 31 34 33 32 29 27 27 28 31 33 33 33
21 21 22 25 27 25 24 21 22 26 26 24 17 24 28 33 28 24 25 26 29 34 34 32 31 31 33
21 28 28 27 22 19 23 21 21 16 8 8 21 20 9 19 21 25 34 32 32 32 32 32 31 31 30
27 28 28 26 25 25 25 24 24 24 33 25 21 25 18 18 19 26 32 36 35 33 31 31 30 29 29
21 21 22 29 30 29 31 30 29 34 39 33 21 25 26 24 19 28 29 32 32 34 31 31 28 27 28
19 23 24 29 31 32 31 32 32 34 34 32 31 32 29 28 26 33 31 29 33 33 31 31 33 30 27
22 25 25 25 27 27 27 27 27 32 31 28 27 30 30 30 29 31 34 19 30 32 31 31 32 30 30
21 21 23 24 26 26 25 26 23 27 33 34 30 28 31 32 30 33 31 30 31 30 27 31 32 31 31
22 22 23 25 27 27 24 23 24 27 28 31 30 29 28 26 29 34 34 30 34 31 29 26 31 30 31
23 25 26 25 25 26 25 24 25 26 28 30 27 22 12 14 28 23 26 28 32 30 28 27 27 35 32

GFSFLT2_925_spd_027.txt.gz
Wind_Speed
18 21 22 24 26 28 28 27 29 26 24 25 25 26 28 28 29 29 30 30 29 30 31 31 33 33 33
18 21 23 23 26 28 29 30 28 28 26 25 27 28 28 28 28 28 28 28 29 30 31 32 34 34 35
17 21 23 25 29 30 27 28 27 28 27 26 26 26 25 25 27 29 30 29 29 30 32 32 33 34 34
22 23 22 24 24 24 24 26 28 32 31 25 23 22 28 30 29 29 29 29 29 30 30 31 32 32 33
20 20 19 18 20 25 25 26 26 31 26 23 24 30 35 32 32 30 28 28 28 29 31 33 34 34 34
18 14 17 21 24 22 24 21 10 20 20 31 27 32 35 35 32 29 31 32 32 32 33 34 34 32 32
21 22 23 26 31 29 24 21 24 29 28 32 25 32 34 33 31 32 33 33 32 32 32 31 32 31 30
22 26 27 26 25 24 24 28 28 26 21 20 24 28 33 32 35 32 29 29 29 29 29 30 31 32 34
20 21 22 25 26 25 26 20 19 22 23 22 19 26 29 34 23 24 24 27 30 32 33 34 34 34 34
20 27 27 25 21 19 21 22 17 15 8 8 20 16 10 19 19 26 35 32 32 32 32 32 32 32 30
27 26 26 25 24 25 23 22 20 22 32 24 20 24 17 19 21 26 31 36 36 36 34 32 30 28 29
21 21 23 30 30 29 28 27 27 31 37 32 21 24 26 25 21 30 30 32 33 37 35 35 29 26 27
18 23 26 29 28 30 31 31 31 32 31 31 31 32 28 28 27 33 32 29 35 33 31 32 34 32 30
22 25 26 24 26 26 29 29 27 32 28 27 26 29 31 30 30 33 33 20 29 31 31 31 32 30 31
22 20 22 23 25 28 26 26 21 27 32 34 28 27 31 33 30 34 32 31 32 31 27 31 33 31 32
23 21 22 24 26 26 23 21 23 25 27 31 30 30 27 26 28 34 35 32 35 32 29 27 31 28 30
21 25 25 26 23 26 25 22 24 25 28 29 26 22 12 13 31 24 27 30 30 31 30 27 28 34 32

GFSFLT2_925_spd_030.txt.gz
Wind_Speed
13 17 20 22 23 23 24 26 28 26 24 24 22 23 24 26 26 27 28 30 30 30 30 30 29 30 31
18 19 21 21 22 24 25 27 28 27 24 23 24 24 25 24 24 26 27 28 29 30 31 32 31 32 33
16 19 20 21 24 25 27 29 28 27 25 24 21 21 22 22 24 27 29 30 31 31 31 32 33 34 34
19 21 21 22 22 23 22 24 27 29 28 20 20 21 25 28 30 29 29 29 30 31 31 33 34 34 34
19 19 19 19 18 23 25 25 26 27 22 24 26 33 36 33 30 28 26 25 27 28 30 32 33 33 34
18 16 18 22 23 23 22 18 10 20 18 28 28 33 34 32 29 26 28 30 30 30 31 33 33 34 33
17 21 22 25 27 27 23 19 21 29 29 29 23 31 33 33 30 30 31 31 29 28 28 28 30 31 31
20 23 23 21 21 20 25 26 24 28 22 16 26 27 34 33 35 29 26 27 27 28 28 29 30 31 31
17 17 18 21 23 22 25 20 17 21 20 21 21 26 28 32 17 23 23 25 29 33 33 32 31 31 33
18 23 23 21 19 17 18 20 16 13 5 7 23 18 9 21 20 27 35 33 31 31 32 33 31 31 29
23 23 23 22 23 23 20 19 18 20 28 21 18 23 18 19 22 25 31 36 36 36 33 30 28 26 27
19 21 23 27 27 25 24 24 24 28 33 29 18 23 24 25 22 27 27 32 33 35 33 33 28 26 26
18 22 24 25 24 27 27 27 28 30 27 24 27 30 27 27 27 35 30 31 32 32 30 32 35 32 32
20 24 24 23 26 25 28 29 28 31 25 22 20 24 30 30 29 33 34 19 30 31 32 32 31 31 33
21 22 22 24 27 27 27 26 18 24 32 33 27 25 28 33 30 33 33 32 32 33 27 32 32 31 33
21 19 22 25 27 27 23 21 22 24 25 31 30 28 26 25 26 31 32 31 34 32 28 26 31 30 29
18 20 22 25 21 26 26 23 23 24 27 27 24 20 11 12 32 23 25 28 31 34 30 29 29 33 33

GFSFLT2_925_spd_033.txt.gz
Wind_Speed
10 11 14 15 16 17 18 19 19 23 22 22 21 21 22 24 25 26 27 27 28 29 29 29 30 29 29
8 12 16 15 16 18 19 19 20 23 22 21 22 23 22 22 23 24 24 25 27 28 30 31 31 32 33
10 12 13 15 13 15 16 19 21 21 19 21 19 19 20 22 24 25 27 29 30 30 30 31 31 32 32
11 11 11 11 12 15 17 18 22 20 20 17 18 20 24 26 27 27 27 27 27 28 29 30 31 32 34
12 10 12 13 14 17 19 20 20 21 16 14 18 23 25 24 24 23 24 25 26 26 28 30 31 32 33
11 13 15 15 15 17 18 19 12 12 9 24 23 28 25 22 24 25 27 29 29 29 30 31 32 32 32
13 14 16 16 18 18 18 17 19 26 24 26 24 25 23 22 25 27 29 29 28 28 28 29 30 31 31
14 16 16 16 16 17 19 22 22 24 18 15 21 22 23 24 27 28 25 26 27 28 28 28 30 31 32
13 13 14 17 18 17 17 16 16 17 17 17 18 23 26 29 20 21 22 25 28 31 33 32 31 31 32
14 18 17 15 13 11 11 13 14 12 4 6 21 19 9 18 15 23 27 26 29 29 30 31 30 30 28
14 13 11 11 11 11 11 12 13 15 21 16 16 23 15 16 25 24 27 31 28 29 27 27 26 24 26
10 12 12 14 15 15 16 16 16 23 28 21 15 18 21 24 20 28 30 31 29 31 27 26 25 25 26
10 13 13 17 17 18 18 19 21 23 22 19 22 26 24 25 26 32 30 31 31 28 26 24 25 24 26
11 14 15 14 15 13 15 18 21 21 19 20 19 22 28 28 27 32 30 19 27 30 27 31 28 27 28
11 12 13 13 14 15 16 17 15 21 26 27 22 23 28 30 29 31 28 30 31 30 26 31 31 29 29
13 13 13 15 16 17 15 16 20 23 23 26 26 25 24 23 25 31 26 26 32 32 28 26 32 30 28
16 16 17 17 16 17 18 18 20 23 25 25 23 19 11 13 27 21 28 32 31 32 30 28 30 35 29

GFSFLT2_925_spd_036.txt.gz
Wind_Speed
5 5 11 16 16 15 15 16 17 19 20 22 23 23 22 23 24 25 25 25 25 26 27 28 27 28 28
7 10 13 13 13 15 16 16 19 20 22 22 22 22 23 23 22 22 22 24 25 26 27 28 29 30 31
3 5 8 10 14 14 17 18 19 20 21 22 21 22 22 21 22 24 25 26 27 28 30 31 31 31 32
7 10 11 11 12 15 16 17 21 19 20 22 20 20 23 23 24 25 26 26 26 26 27 28 29 30 30
10 8 11 12 14 14 16 18 19 21 21 17 17 20 22 22 23 24 23 23 25 26 27 28 29 30 32
10 13 13 13 13 15 16 17 14 13 12 21 22 25 24 23 23 25 26 27 28 29 29 29 31 32 32
16 15 14 14 13 15 16 16 18 24 23 25 24 25 23 24 25 27 29 30 29 28 27 28 29 30 31
14 15 14 14 14 14 15 19 21 23 20 21 23 22 24 25 27 28 29 28 27 27 27 28 29 30 31
14 14 14 15 16 16 16 16 17 22 19 18 20 21 24 29 23 19 22 24 26 27 29 30 30 30 32
12 12 13 13 13 13 14 15 15 12 4 6 15 16 7 14 14 21 23 23 25 27 29 30 29 29 28
13 12 11 11 10 10 13 15 15 19 19 16 13 20 16 19 21 22 26 25 25 27 27 28 26 24 26
11 11 11 11 11 12 13 16 19 26 29 23 16 18 19 22 20 25 26 31 29 28 24 25 24 24 26
11 11 11 13 15 13 14 15 19 23 26 23 24 25 23 24 26 32 27 28 34 29 23 23 24 24 26
12 13 13 13 13 12 14 15 18 20 14 21 21 22 25 25 27 32 28 19 25 30 28 30 29 27 28
12 13 14 14 14 13 15 16 17 21 23 19 18 21 26 28 29 31 29 27 27 31 28 30 31 29 29
12 13 15 15 16 15 16 17 18 20 21 22 23 25 25 25 26 32 28 29 30 28 29 28 31 28 26
12 13 14 16 16 16 16 17 19 21 22 23 23 21 12 14 22 19 28 32 31 31 28 27 30 33 28

GFSFLT2_925_spd_039.txt.gz
Wind_Speed
7 8 9 11 14 16 18 19 20 18 18 20 21 23 22 23 21 22 24 24 23 23 23 25 26 26 25
11 10 12 13 14 15 16 15 19 18 19 21 23 24 23 22 21 21 23 23 23 24 24 24 26 27 27
8 8 8 10 10 11 13 15 18 18 19 20 21 22 22 21 21 22 24 25 25 25 25 26 28 29 29
5 4 6 9 11 14 13 12 13 16 20 20 21 21 20 20 22 24 24 24 24 24 24 25 26 27 28
3 4 7 9 11 11 12 13 14 19 19 18 16 18 22 23 23 22 21 21 21 22 24 26 27 28 29
6 6 11 12 10 10 10 10 8 11 9 20 22 23 24 25 23 23 23 25 25 26 27 28 29 30 30
7 10 11 10 8 12 14 13 16 20 19 24 23 25 25 25 22 24 25 26 27 27 27 28 28 29 30
10 11 11 11 11 13 15 16 18 19 16 19 24 24 26 27 25 25 26 26 25 25 25 26 27 28 29
10 13 14 14 14 14 15 14 14 16 17 16 15 19 23 31 27 20 19 21 24 27 27 27 27 28 30
11 10 11 13 12 14 15 14 12 10 1 4 11 12 8 17 16 21 28 24 25 28 28 27 28 28 28
10 10 10 10 10 11 13 15 15 18 16 16 12 13 13 19 21 26 31 31 27 28 28 27 27 25 27
9 10 10 10 11 13 15 16 18 24 25 21 18 20 21 23 21 27 28 30 31 31 28 26 25 25 25
9 10 10 12 16 19 16 17 20 22 23 23 27 28 25 26 27 33 31 29 33 28 25 24 26 24 26
11 11 13 14 14 14 15 15 18 20 19 21 25 28 28 27 27 32 32 21 30 32 32 29 33 32 30
11 12 13 14 15 14 15 16 17 19 21 18 18 22 27 30 28 32 33 31 29 31 31 31 32 35 32
12 13 14 14 15 16 16 18 19 20 22 22 20 22 24 26 28 35 31 32 30 28 28 28 30 29 28
14 15 15 15 16 17 18 18 21 22 23 23 22 20 10 13 22 20 29 27 30 32 30 28 31 34 29

GFSFLT2_925_spd_042.txt.gz
Wind_Speed
15 18 17 18 19 20 23 21 21 19 15 16 18 18 18 21 21 20 20 20 20 19 19 20 20 21 21
13 18 22 22 18 19 19 16 15 17 15 16 17 19 20 20 21 21 21 19 19 19 20 20 21 21 22
9 14 16 16 13 15 14 14 16 14 12 14 16 18 19 20 20 20 20 19 21 22 21 21 22 23 24
7 6 6 8 9 12 14 10 10 9 13 16 19 19 17 16 17 18 19 19 20 20 20 21 22 23 24
7 5 7 7 10 7 10 7 8 15 19 15 14 14 17 21 20 20 18 17 18 18 20 21 23 25 26
5 3 7 9 11 11 3 5 4 12 6 23 23 21 20 21 19 17 18 18 19 20 21 23 24 26 27
5 6 6 4 5 8 11 12 14 19 18 25 19 22 22 23 20 19 19 19 20 21 22 23 23 25 26
7 7 7 7 7 8 9 11 14 16 15 15 15 26 22 21 23 20 18 16 16 18 20 22 24 25 26
6 9 11 11 11 12 13 14 13 10 18 17 11 18 26 24 10 10 12 15 20 22 22 23 25 26 27
11 11 12 11 11 11 12 13 12 8 4 4 9 12 10 11 11 27 25 26 22 23 24 23 24 26 27
11 11 10 10 10 9 11 13 14 17 14 14 9 13 8 13 25 23 27 28 32 31 26 23 21 20 24
8 9 10 10 11 12 13 15 17 20 20 18 15 17 18 21 18 25 29 31 29 32 28 24 24 23 22
9 9 9 10 13 17 16 16 17 18 19 21 24 27 24 23 25 31 26 32 33 23 26 31 31 31 32
11 11 13 15 14 14 16 17 18 20 18 18 21 25 29 27 26 31 30 19 28 33 33 33 34 32 32
11 13 12 13 14 15 17 18 17 20 21 20 20 21 26 28 27 30 33 32 30 33 32 30 32 35 33
12 14 16 17 19 19 17 16 18 20 21 21 21 22 22 26 27 34 33 31 32 30 30 27 29 30 30
15 16 18 19 18 20 19 18 19 19 21 20 19 18 10 13 26 23 31 28 28 30 30 29 30 34 33

GFSFLT2_925_spd_045.txt.gz
Wind_Speed
18 20 25 26 27 22 18 20 18 21 23 26 20 17 19 19 18 20 19 18 17 18 18 18 19 19 19
15 17 20 23 22 21 19 16 20 24 23 16 16 17 18 18 18 19 18 17 17 18 17 18 19 19 20
7 13 15 19 17 18 17 19 21 17 15 14 13 13 18 18 18 18 17 17 17 18 18 20 20 20 21
5 6 7 9 14 13 11 11 12 11 9 10 13 16 17 15 14 14 16 16 17 17 17 18 19 20 21
4 4 7 6 7 4 7 5 9 9 10 16 13 14 16 19 19 17 15 15 15 16 17 18 19 20 22
2 2 2 2 5 8 8 4 2 4 2 20 17 19 14 12 13 14 13 15 15 16 17 19 20 22 23
2 1 2 1 1 4 5 8 9 14 14 17 18 21 13 16 13 14 14 14 15 15 16 18 19 20 21
6 6 4 4 6 8 9 10 13 16 15 8 11 18 15 16 16 12 8 7 9 11 14 17 19 21 22
3 5 7 9 9 9 10 10 10 5 12 13 9 14 20 10 2 4 4 14 13 14 15 18 19 20 22
10 10 9 10 10 10 11 11 9 5 2 6 6 9 9 6 5 16 17 15 14 18 18 17 17 19 24
10 7 7 6 5 6 8 9 11 12 11 13 4 8 8 11 17 19 19 21 27 23 21 17 15 14 20
6 6 5 5 5 7 9 12 15 18 20 17 13 13 15 18 16 17 26 30 23 28 24 20 20 22 21
6 7 8 10 12 13 12 13 14 15 16 16 19 22 22 21 23 28 23 25 33 18 25 30 30 29 31
8 9 11 12 12 10 13 15 17 17 14 15 17 20 23 25 25 29 27 16 27 31 30 34 33 32 31
9 9 9 10 13 13 15 17 15 18 19 18 18 20 24 28 27 28 30 30 29 30 28 29 29 29 31
11 12 14 15 17 15 15 15 17 18 20 22 21 20 21 26 28 32 30 30 28 28 28 27 32 28 30
13 14 15 16 16 19 17 17 18 20 22 24 23 18 9 11 23 23 29 29 25 27 27 28 31 35 32

GFSFLT2_925_spd_048.txt.gz
Wind_Speed
11 14 16 21 22 25 24 25 24 21 20 16 17 19 21 20 19 19 20 20 19 18 19 19 18 19 20
9 11 14 19 23 20 20 22 21 22 22 18 19 19 18 18 19 18 19 19 18 17 18 18 18 18 19
5 6 13 15 16 17 16 17 15 17 16 17 17 16 17 17 18 18 19 19 17 17 17 18 19 19 19
3 3 4 5 13 12 13 13 14 13 10 11 10 13 15 16 17 16 15 14 15 16 17 17 18 19 18
3 1 2 1 3 2 4 4 7 9 9 12 16 17 17 18 19 19 17 17 16 16 15 16 17 18 18
3 3 3 2 1 3 5 4 2 3 6 13 17 21 17 15 14 14 14 14 15 15 15 16 17 18 19
3 2 2 1 0 1 2 5 7 10 11 18 17 21 12 11 13 13 12 14 14 14 15 15 15 17 19
2 3 3 3 5 7 7 8 10 14 14 8 10 16 14 13 15 15 13 9 7 8 11 14 16 17 19
0 1 3 5 6 9 8 8 8 5 5 9 7 13 18 12 2 6 9 8 12 12 13 15 17 18 21
9 11 12 11 10 11 10 10 8 6 1 3 5 10 8 5 4 9 11 13 12 14 16 16 15 17 19
11 9 7 6 6 6 8 9 10 13 9 9 7 7 9 9 16 17 20 14 19 24 16 15 15 15 19
7 6 5 4 4 6 7 10 12 16 15 15 13 11 12 15 14 12 21 27 27 21 24 20 17 19 20
6 7 7 8 10 12 11 11 13 15 16 16 19 21 21 19 22 24 23 16 28 26 14 26 30 28 27
7 9 10 10 9 9 13 13 17 17 11 10 15 18 21 22 22 29 26 16 22 26 27 31 31 31 28
9 9 9 10 11 13 14 15 17 19 21 18 13 14 21 25 24 25 28 27 26 27 24 25 26 26 26
10 12 13 15 16 15 14 19 19 20 22 22 20 19 16 20 25 29 27 27 27 25 27 27 31 31 28
13 14 15 16 15 18 21 18 18 20 24 25 23 19 8 9 18 20 28 27 26 26 26 26 31 35 29

GFSFLT2_925_spd_051.txt.gz
Wind_Speed
9 12 12 10 13 17 20 23 20 17 17 16 17 19 19 18 19 20 18 18 18 20 21 20 20 18 18
5 7 7 8 11 12 16 16 19 19 16 17 18 16 16 19 19 18 19 20 18 19 19 19 19 18 17
4 5 4 6 8 10 11 13 15 15 15 15 15 14 17 18 19 18 17 18 18 19 19 18 18 18 17
2 3 3 3 5 7 9 9 10 12 13 14 11 10 11 11 15 16 18 17 15 16 16 17 18 18 18
3 2 2 3 2 1 2 3 6 8 8 9 12 14 17 19 20 20 19 17 17 19 18 18 17 17 17
3 2 2 3 2 2 2 2 2 2 5 8 10 17 21 21 19 18 16 15 17 17 16 15 16 17 16
3 3 2 2 2 2 2 3 4 8 10 15 16 23 19 14 13 13 14 15 16 15 15 16 16 17 16
2 3 3 3 4 5 6 7 10 12 12 7 11 15 16 12 14 16 14 14 14 13 13 12 13 15 17
2 1 2 3 6 8 7 8 6 4 6 8 7 14 18 13 5 5 7 9 10 11 11 11 14 16 19
8 9 10 10 8 8 8 8 7 5 2 2 5 10 8 5 3 6 11 10 11 12 11 14 15 16 19
10 8 6 4 4 3 4 5 7 9 9 8 5 9 8 9 15 14 16 19 18 16 20 22 15 15 20
7 6 5 4 5 6 7 9 11 14 15 14 10 10 13 17 13 12 21 25 27 25 19 21 24 19 17
7 8 8 8 10 11 11 11 13 15 17 17 19 20 20 19 21 23 21 16 26 30 19 15 24 27 29
7 9 10 10 9 9 12 13 15 18 11 11 13 15 19 22 23 29 24 15 20 25 28 28 25 23 24
9 9 8 9 11 12 13 14 15 21 22 18 13 13 17 23 25 27 29 27 25 25 24 24 23 23 24
10 11 13 14 16 16 14 15 21 23 24 23 20 19 15 17 21 30 27 26 26 27 27 26 27 29 29
13 13 13 15 15 16 16 19 20 21 24 23 22 18 7 8 15 18 27 28 29 27 30 29 30 35 33

GFSFLT2_925_spd_054.txt.gz
Wind_Speed
5 9 10 11 11 10 11 12 11 9 11 12 15 20 23 22 19 19 21 19 17 16 17 16 16 16 17
5 8 8 8 6 5 7 9 9 8 12 11 10 11 13 15 17 17 18 15 16 18 16 15 15 16 16
3 5 4 6 5 3 5 7 10 16 17 20 21 18 16 15 16 17 17 15 13 14 15 15 15 16 16
3 4 4 5 4 4 4 5 7 8 10 11 12 14 13 13 10 10 12 13 14 15 14 14 14 15 16
4 4 5 5 5 5 3 3 4 5 7 7 9 11 11 13 16 20 21 19 17 16 16 17 16 16 15
5 4 4 4 4 5 5 4 3 4 6 7 8 12 15 19 20 20 18 16 15 15 17 16 15 15 15
4 4 4 5 4 5 5 5 5 10 13 12 13 18 13 11 11 12 11 12 13 13 13 14 14 14 15
4 4 3 4 5 6 7 7 10 11 8 5 8 16 12 11 12 12 13 11 10 10 12 13 12 13 14
3 4 4 5 6 9 8 8 7 4 6 5 6 15 16 7 5 5 1 5 7 7 7 9 10 12 16
8 8 9 8 7 7 7 7 6 5 2 4 6 9 8 5 4 4 6 6 9 10 11 11 12 15 20
8 5 4 3 2 2 3 4 5 6 7 6 6 9 7 8 16 17 15 13 15 19 19 19 20 21 22
5 4 4 4 4 6 7 8 10 13 13 14 11 10 11 15 11 13 20 23 22 23 22 19 20 22 22
5 5 6 8 9 9 9 9 12 13 13 13 16 17 17 17 18 21 18 13 26 24 16 15 20 23 26
6 7 9 8 8 8 12 14 15 13 10 11 10 12 18 18 20 24 22 14 19 27 27 25 23 22 22
8 8 9 9 11 12 13 15 14 18 22 20 13 13 17 22 25 28 33 30 28 28 24 25 23 24 24
11 11 13 14 15 15 14 15 17 21 24 24 20 18 17 19 19 28 27 28 28 26 23 24 25 25 29
13 14 16 18 17 18 18 17 22 22 26 25 21 16 5 7 13 18 28 27 27 28 27 27 29 31 32

GFSFLT2_925_spd_057.txt.gz
Wind_Speed
3 5 8 9 8 7 6 7 7 5 15 8 10 9 8 10 13 16 19 17 19 22 22 15 15 14 16
2 5 5 7 6 4 4 4 4 5 5 3 3 4 8 11 12 13 17 15 17 18 19 18 15 14 14
1 4 3 6 4 4 4 4 5 8 12 13 13 14 13 14 14 14 15 16 16 13 12 14 14 15 16
2 2 3 4 6 7 7 7 7 6 7 8 9 11 11 14 15 14 14 14 16 16 14 15 15 14 15
2 2 3 4 5 5 4 5 4 6 7 6 6 7 9 10 11 13 15 16 15 15 16 17 17 17 16
2 2 2 3 4 5 4 4 2 5 9 9 11 11 13 15 17 19 20 19 17 16 15 16 16 16 15
3 2 2 2 3 3 4 3 3 8 9 8 8 9 8 12 12 13 12 12 12 13 12 12 13 14 13
5 3 2 3 2 4 4 6 7 7 6 4 6 9 10 10 10 8 11 12 11 11 12 12 13 13 13
2 3 4 5 5 7 5 5 5 2 4 3 5 11 8 3 3 3 3 1 8 9 9 9 11 12 13
4 4 5 4 5 5 4 2 2 3 1 4 5 7 6 4 4 10 9 6 7 8 9 9 9 11 13
4 2 2 1 1 1 2 2 3 4 5 3 5 7 4 8 11 11 7 6 9 12 16 18 16 15 16
3 2 2 2 4 5 6 7 8 11 12 13 7 8 8 12 10 7 12 15 14 12 12 16 19 21 20
3 4 4 6 7 7 8 9 11 12 10 9 12 13 11 11 14 15 16 9 17 12 7 14 18 18 21
5 6 7 7 6 5 7 9 10 7 4 8 8 12 13 15 17 22 17 12 14 16 19 20 18 17 18
8 7 7 6 7 7 10 10 11 13 11 11 12 14 18 22 20 23 24 22 21 20 15 19 19 18 19
10 11 11 11 10 10 10 10 12 13 14 13 12 13 11 16 18 24 17 19 16 16 15 17 23 21 22
12 13 14 15 13 12 13 13 15 16 17 15 13 9 8 9 12 18 23 20 19 19 18 21 25 29 22

GFSFLT2_925_spd_060.txt.gz
Wind_Speed
4 6 6 8 9 8 6 3 2 4 6 9 10 9 7 8 6 7 9 13 15 18 14 15 16 15 12
2 3 4 7 6 5 4 3 3 5 4 3 2 3 3 3 5 8 9 10 12 13 13 12 12 14 14
1 2 3 6 4 4 4 4 5 6 6 7 8 8 8 9 9 12 14 13 14 14 16 17 19 17 16
2 0 1 3 3 4 3 5 5 6 7 7 7 8 9 10 11 12 10 10 11 12 13 17 16 14 15
2 2 1 1 2 4 5 5 3 6 7 6 6 6 5 6 7 9 11 14 16 17 15 14 14 15 16
2 2 2 2 2 3 5 5 3 4 8 9 7 7 7 7 11 14 15 16 16 15 15 15 16 16 17
1 1 2 2 2 3 3 4 5 7 8 6 5 6 6 7 10 11 12 12 11 12 13 14 14 15 16
2 0 1 2 3 3 5 7 8 5 4 4 5 6 8 7 10 4 5 8 10 10 11 12 13 14 14
4 5 6 7 6 6 6 5 5 2 3 4 5 10 7 4 4 5 6 6 5 8 9 11 12 13 14
4 6 5 4 5 3 3 4 3 4 1 5 6 8 6 3 4 8 6 8 8 10 11 10 11 12 13
4 3 2 1 1 1 2 3 4 5 4 2 4 7 5 8 10 8 9 5 8 9 11 13 15 15 15
4 4 4 4 4 5 6 6 7 10 10 10 5 6 8 9 9 6 10 12 11 10 9 11 15 18 21
6 5 5 5 7 7 8 8 9 11 11 11 10 9 9 10 14 15 14 8 15 15 9 10 12 12 16
7 6 6 6 6 5 6 7 9 10 9 9 11 11 12 15 17 21 16 12 8 13 16 18 16 17 19
8 8 7 7 7 7 8 9 11 11 10 9 10 12 16 19 20 22 21 19 18 18 16 19 18 17 18
9 9 9 9 9 9 10 11 13 12 12 10 10 11 13 16 23 25 18 17 15 16 16 18 21 19 18
10 10 10 10 10 11 12 13 14 14 14 12 11 12 9 9 13 18 20 17 16 19 20 22 24 25 23

GFSFLT2_925_spd_063.txt.gz
Wind_Speed
3 4 2 5 8 8 6 4 5 5 5 6 4 6 7 7 7 5 3 3 5 6 6 6 9 10 11
2 3 5 6 7 5 5 5 4 6 4 5 4 3 3 3 3 3 4 5 7 9 10 10 7 8 11
1 3 3 7 4 4 4 6 5 7 7 5 7 10 9 9 9 9 9 11 12 12 12 11 12 14 11
1 1 1 3 4 5 4 6 5 5 7 8 7 7 6 6 8 9 8 8 9 9 10 10 12 13 11
1 2 2 3 3 4 6 6 4 5 5 4 7 4 5 6 6 6 7 9 11 12 14 14 14 13 12
2 3 2 4 3 4 5 6 3 6 9 10 8 7 6 6 11 13 13 13 13 12 12 11 11 12 12
1 3 2 2 4 4 4 5 7 9 11 7 6 7 7 7 11 14 10 10 11 10 9 10 11 12 12
2 3 2 0 2 3 5 7 9 5 6 4 6 7 9 8 11 8 8 8 7 7 8 8 8 9 11
3 3 5 6 6 5 5 6 5 1 2 3 5 12 9 7 7 6 11 9 8 6 6 8 9 11 12
4 5 3 3 3 3 4 4 4 5 1 4 7 8 6 3 5 8 10 9 11 8 9 12 12 13 15
4 4 2 2 1 3 4 5 5 6 6 3 4 6 5 7 10 8 9 8 11 11 10 11 12 13 14
5 5 5 5 5 6 7 8 9 12 13 11 6 5 7 8 8 7 10 13 15 15 13 13 13 14 17
7 6 6 7 10 9 8 8 10 11 12 13 13 12 12 11 12 14 14 7 15 18 16 13 13 14 17
8 7 7 8 7 6 8 8 11 13 11 13 12 13 14 18 19 23 19 13 12 16 17 21 22 23 23
8 8 8 8 9 8 10 10 12 13 12 13 13 14 16 20 23 25 25 23 22 22 18 19 20 21 22
9 9 9 9 10 10 11 13 15 14 13 12 12 13 16 23 26 33 24 22 20 17 18 19 22 21 23
12 11 11 12 11 13 13 14 16 16 16 14 13 14 9 9 15 15 25 23 20 22 21 23 25 28 25

GFSFLT2_925_spd_066.txt.gz
Wind_Speed
2 2 2 3 6 5 4 3 2 5 6 6 6 6 6 7 9 9 8 6 5 4 4 5 7 8 10
4 1 4 4 5 3 4 4 4 5 4 4 4 2 2 3 2 1 1 0 0 1 3 4 5 6 8
3 1 3 6 3 4 3 9 8 8 8 6 5 5 5 5 6 5 5 5 5 5 6 7 8 8 8
3 2 1 4 3 5 5 4 4 5 5 6 8 6 6 6 4 4 4 4 5 6 7 7 7 8 10
3 3 1 2 2 3 3 4 1 4 6 2 5 5 3 3 5 6 6 6 7 10 11 11 12 12 11
4 5 4 3 3 1 3 3 1 3 10 12 3 5 3 6 9 11 10 9 10 10 10 10 10 10 10
2 4 4 1 2 1 1 2 3 7 9 3 3 5 2 6 9 10 5 4 6 7 7 6 8 9 10
3 3 2 2 2 1 3 5 6 3 3 1 5 8 9 6 7 7 5 6 6 5 4 5 6 6 7
2 3 4 5 6 6 4 4 2 2 1 3 3 11 9 3 5 5 8 8 9 7 3 4 5 7 10
3 3 3 2 3 4 5 4 2 2 0 3 5 7 5 0 2 5 8 8 8 6 7 8 9 11 13
3 2 3 3 2 3 4 6 6 5 3 4 3 4 3 6 10 6 5 7 9 11 12 11 9 9 12
4 4 5 4 6 8 7 6 8 11 12 12 8 6 5 6 7 7 12 13 15 14 11 12 12 14 12
6 6 7 9 9 10 11 8 8 8 9 10 11 13 9 9 11 14 15 12 18 7 10 15 15 15 17
8 7 8 10 9 7 7 7 10 11 7 9 10 12 13 16 17 24 21 12 20 26 22 21 19 20 22
11 10 11 11 10 8 9 10 13 16 15 10 12 14 17 17 21 24 26 27 26 23 20 21 20 19 20
12 13 15 13 12 12 12 14 16 17 16 12 12 12 16 21 23 28 25 26 25 21 17 19 23 25 25
16 17 16 15 14 14 16 17 19 19 18 17 15 16 9 9 16 20 24 25 23 24 25 27 26 32 28

GFSFLT2_925_spd_069.txt.gz
Wind_Speed
6 8 5 2 5 6 4 3 2 0 2 3 4 6 6 6 8 9 9 9 10 9 7 7 7 6 5
8 6 3 5 4 2 1 1 1 2 1 1 2 3 1 1 2 3 2 2 2 4 5 2 2 3 4
5 5 2 3 4 3 4 2 4 2 1 3 2 1 2 2 3 3 3 2 2 2 5 6 7 7 7
4 4 3 2 0 3 5 2 2 0 0 1 2 2 2 2 1 1 1 3 3 3 4 5 6 6 7
6 5 5 5 2 3 2 1 2 1 2 1 3 2 1 1 3 5 6 5 5 6 7 8 8 9 10
6 5 4 5 4 3 1 1 2 2 6 6 0 1 1 1 4 6 7 5 6 7 9 9 9 11 11
7 7 7 5 6 4 2 2 2 4 6 0 1 1 1 2 4 5 3 3 4 3 3 4 4 6 7
5 4 3 3 4 2 2 2 4 2 1 2 3 3 6 4 1 3 4 4 5 5 3 1 3 3 4
3 2 3 4 5 5 5 3 2 1 1 3 2 7 5 1 2 1 3 4 5 5 2 1 4 4 7
3 3 3 3 3 4 5 4 4 1 1 3 3 5 3 1 2 4 6 4 4 3 5 5 6 9 11
3 3 4 3 3 2 3 5 7 5 3 3 2 2 2 4 6 4 2 3 7 8 10 10 8 7 11
4 5 6 5 4 4 5 5 6 7 8 9 5 5 6 4 6 4 9 12 8 8 11 8 9 10 11
7 7 6 5 7 9 9 10 8 7 7 7 8 9 9 8 7 11 13 6 11 3 11 19 18 16 17
9 8 7 8 8 9 8 6 8 7 4 5 9 11 13 14 13 16 15 10 13 21 18 16 15 14 16
11 11 11 10 11 8 9 8 11 11 14 10 8 11 15 17 20 21 23 22 22 20 18 18 19 16 16
12 12 13 13 12 10 11 12 14 15 16 13 10 11 12 15 19 25 21 20 22 20 19 19 24 25 23
15 16 15 15 14 14 14 14 17 18 18 15 13 13 4 6 11 13 20 18 15 19 23 23 25 32 28

GFSFLT2_925_spd_072.txt.gz
Wind_Speed
6 11 10 6 3 3 7 6 2 1 2 2 1 1 2 1 2 4 5 5 4 5 5 6 8 8 11
9 9 7 5 3 5 4 2 2 3 0 2 4 4 1 1 1 2 2 4 5 6 7 7 4 4 4
7 8 5 4 3 5 5 4 4 3 2 1 1 0 2 0 2 3 2 2 3 4 3 4 4 4 4
5 5 4 4 2 4 6 5 4 3 4 4 2 2 1 1 0 1 2 3 2 3 4 6 6 7 7
5 3 5 5 6 7 7 5 5 4 4 6 5 4 3 3 2 4 5 5 5 5 5 5 5 6 7
8 6 7 7 7 7 5 4 3 5 2 4 2 2 3 3 2 5 5 2 3 6 8 8 8 8 8
10 8 8 8 8 7 6 5 3 3 3 2 2 1 3 2 2 3 2 2 3 3 2 4 5 6 7
5 6 5 6 6 5 5 4 3 3 1 1 2 2 4 4 4 1 2 4 4 3 2 1 0 1 2
3 3 3 3 5 5 5 4 3 4 2 0 1 2 2 4 7 4 3 1 3 3 1 1 3 4 5
4 4 3 4 6 6 7 7 4 2 3 1 1 2 1 4 5 5 5 5 4 5 3 3 3 6 7
5 4 4 5 4 3 4 5 6 3 3 1 2 2 2 3 4 6 5 5 5 7 8 8 7 6 9
5 5 6 6 5 4 3 4 4 4 5 5 3 3 4 4 6 3 6 10 12 8 9 8 6 8 9
7 6 5 5 5 7 6 7 8 6 6 7 6 7 8 7 5 10 10 2 12 7 6 17 15 13 14
9 7 7 8 7 6 7 7 8 7 7 4 6 9 13 16 16 18 15 8 7 14 17 16 14 12 13
10 9 8 8 8 8 9 8 8 6 8 7 8 11 13 16 18 20 20 20 19 16 15 18 18 14 14
14 13 12 11 9 9 10 12 12 12 12 12 10 9 9 13 18 23 18 18 13 12 12 14 24 22 20
14 15 13 12 11 12 12 12 13 13 13 12 11 10 3 4 9 15 20 17 13 16 21 22 25 30 27

GFSFLT2_925_spd_075.txt.gz
Wind_Speed
6 10 13 11 8 5 4 5 8 3 4 3 2 1 0 1 1 1 2 3 8 8 13 16 15 11 10
6 12 8 9 6 4 3 7 5 3 3 4 4 1 1 2 2 2 2 2 3 3 2 8 8 7 7
7 12 7 9 7 5 5 5 5 4 3 2 1 2 2 3 4 4 2 2 2 2 3 3 4 5 6
7 7 7 8 6 5 5 5 6 5 4 4 4 2 2 0 2 3 3 4 3 2 3 3 4 4 3
6 6 7 6 7 6 8 7 6 5 5 6 6 6 5 5 4 5 5 5 5 6 5 4 4 5 6
7 5 6 5 7 8 7 5 3 6 4 6 5 5 5 5 4 4 4 1 2 6 7 6 7 6 7
10 9 8 8 9 8 8 6 3 3 3 4 4 4 5 5 4 3 1 2 2 2 1 4 6 6 7
7 7 5 7 7 6 7 6 4 3 3 3 5 4 6 6 6 3 2 3 3 2 2 1 1 1 2
5 5 4 5 4 5 6 6 3 4 5 3 3 3 4 6 9 7 5 2 1 2 1 2 2 4 4
5 5 4 4 4 5 6 7 4 3 6 3 3 1 2 5 7 8 6 5 5 5 4 3 3 6 6
5 4 4 4 4 3 4 5 5 3 4 3 3 2 2 2 5 8 7 7 7 7 8 8 7 6 8
4 4 5 6 5 5 4 3 3 4 4 4 2 3 2 3 4 3 6 9 10 11 10 8 9 9 10
8 7 7 6 8 8 6 5 5 6 7 8 8 8 8 6 4 6 7 3 8 13 11 11 14 14 13
10 8 8 9 9 8 7 6 7 7 7 7 6 8 11 13 14 17 16 10 3 3 12 19 17 15 15
11 11 10 10 10 11 9 8 7 4 5 5 7 10 13 15 17 19 20 20 17 17 17 18 19 16 15
15 14 13 13 12 12 11 11 12 11 9 9 9 9 10 11 16 22 16 16 12 8 10 14 22 20 18
15 16 16 15 13 14 14 13 13 13 12 10 10 9 2 3 8 12 16 15 13 12 13 18 27 30 26

GFSFLT2_925_spd_078.txt.gz
Wind_Speed
8 10 13 13 11 10 7 5 5 4 6 5 4 3 3 2 1 1 2 3 6 12 14 17 12 12 13
6 9 11 11 9 8 6 5 6 7 6 6 4 1 4 2 1 1 1 2 1 4 7 14 14 12 11
7 8 10 12 11 9 8 5 5 6 4 3 3 3 3 4 4 2 0 1 2 4 4 6 7 9 12
7 8 10 9 11 9 7 7 8 7 6 5 4 2 2 1 2 5 6 4 2 3 4 5 4 4 4
8 7 7 7 10 7 8 8 8 8 8 7 6 6 6 4 3 4 4 5 7 5 5 7 8 7 6
10 7 9 8 8 8 8 6 3 8 6 6 6 7 6 5 4 4 4 2 3 5 6 6 7 6 6
8 9 7 9 8 9 9 6 3 3 3 4 5 5 5 5 4 2 1 2 2 1 3 5 5 6 7
9 10 7 7 7 7 7 6 4 5 4 2 4 4 6 5 5 3 2 2 1 2 3 3 3 3 4
4 4 4 5 4 5 6 6 3 3 4 2 2 3 4 5 7 7 5 2 1 3 2 1 2 3 4
5 5 5 4 4 5 6 7 4 1 6 4 3 1 1 3 7 8 6 6 5 5 3 3 4 5 5
5 5 5 6 4 4 5 7 7 4 4 6 4 3 1 1 4 7 8 8 8 8 8 7 7 7 8
7 7 7 6 5 5 5 5 5 6 6 6 3 5 3 0 2 3 7 10 11 11 10 10 10 10 10
8 7 6 5 7 8 7 5 6 7 8 8 8 7 6 4 2 3 6 4 7 11 13 12 12 12 13
8 6 6 7 8 9 9 7 8 9 8 7 6 6 6 8 10 13 13 8 3 3 7 12 15 16 17
11 9 8 8 9 10 9 8 8 3 4 6 6 7 9 11 13 15 16 18 16 15 17 21 20 16 16
14 12 11 11 10 11 12 12 13 11 10 9 8 7 8 9 13 18 16 15 11 7 10 16 22 13 15
16 15 14 13 13 13 14 14 15 14 13 11 10 9 2 2 6 11 14 12 10 10 11 14 23 27 25

GFSFLT2_925_spd_081.txt.gz
Wind_Speed
9 12 12 13 12 11 10 9 7 4 4 6 5 3 1 3 3 3 3 1 4 11 11 11 8 7 15
6 7 10 12 12 10 9 8 5 3 2 7 6 5 4 1 5 4 3 2 3 1 6 13 16 20 21
6 7 9 11 12 11 10 7 4 4 4 4 2 5 5 4 4 3 2 2 1 1 1 4 11 14 16
8 8 9 9 12 12 9 8 6 5 7 6 6 3 2 1 2 4 6 4 2 3 4 5 6 6 6
7 6 7 7 10 9 9 7 6 8 8 8 8 7 7 5 4 4 4 6 6 5 4 4 6 5 4
11 8 11 9 9 9 7 5 3 10 8 8 8 8 7 6 4 4 5 4 4 6 7 7 6 6 5
10 10 8 10 9 10 9 6 4 4 5 4 7 6 6 6 4 2 1 2 1 1 4 6 5 5 5
10 10 10 9 10 9 9 8 7 6 5 3 4 4 5 5 4 3 2 2 1 3 3 2 3 3 3
3 7 8 8 8 9 10 9 5 4 7 4 3 4 4 6 7 7 5 2 2 3 3 3 3 3 3
6 6 6 6 7 7 8 9 4 3 8 7 5 5 3 4 7 9 7 6 6 5 4 4 4 4 5
7 6 6 7 5 5 7 8 7 3 6 8 5 6 3 3 5 8 9 9 10 9 8 7 7 7 6
8 7 7 7 6 5 5 5 5 5 6 7 3 5 5 2 2 4 8 10 11 11 10 10 10 10 9
9 8 6 6 8 8 7 5 4 4 5 7 6 5 5 4 2 3 2 5 7 9 11 12 13 13 12
9 7 8 9 10 10 9 7 5 5 7 7 7 7 7 8 8 9 10 5 3 4 5 10 12 15 16
11 10 10 10 10 11 10 9 6 3 4 7 8 8 9 11 10 12 11 11 12 14 15 17 18 17 18
14 13 13 13 11 12 12 11 8 7 6 6 7 6 7 10 15 14 9 9 9 9 10 12 15 12 12
17 16 15 14 13 14 13 12 10 10 10 10 10 8 5 3 5 10 10 9 7 8 9 11 16 16 17

GFSFLT2_925_spd_084.txt.gz
Wind_Speed
10 10 10 10 10 11 10 10 9 7 5 5 5 5 4 3 2 3 5 5 4 6 8 10 9 10 16
9 9 9 9 10 10 10 9 8 6 3 3 4 4 5 5 3 3 5 4 4 5 7 7 16 9 6
5 7 9 8 9 10 10 9 8 6 3 3 3 4 4 6 5 3 3 3 4 4 3 4 5 16 19
8 7 8 7 9 11 11 11 9 7 6 7 5 6 7 7 4 4 6 6 3 3 2 1 2 5 8
6 5 6 6 8 9 11 10 10 9 6 6 5 5 5 6 4 4 5 7 7 7 5 4 3 2 3
7 7 8 8 10 10 9 6 4 7 6 8 8 6 7 6 6 5 5 5 5 6 5 5 5 5 5
9 9 8 11 10 10 11 8 5 4 5 6 6 6 7 7 6 3 2 0 1 2 5 5 4 4 4
8 7 9 7 9 8 7 6 4 6 7 3 5 5 6 6 6 4 3 1 1 2 2 3 3 3 3
7 9 11 11 9 7 7 7 5 5 8 3 4 4 4 4 5 7 5 3 3 3 3 4 3 4 2
4 4 5 6 8 6 6 7 4 3 5 5 5 4 2 4 5 7 6 7 7 5 4 3 2 3 3
6 5 5 6 4 6 6 7 5 3 3 6 4 3 1 1 3 7 9 8 8 8 7 6 7 6 5
8 7 7 7 6 6 6 6 6 6 6 9 2 5 3 1 2 4 7 9 9 9 9 9 10 10 10
10 8 7 7 9 7 6 5 4 4 6 6 6 5 5 2 2 3 3 6 9 10 10 10 11 12 12
9 8 8 9 8 8 6 6 4 4 6 7 8 7 5 6 6 6 6 3 5 7 8 7 9 11 13
10 10 9 9 8 8 7 7 5 4 4 5 7 8 8 9 6 8 8 8 9 10 11 11 12 13 14
12 12 11 11 10 10 9 8 7 6 6 5 4 3 4 8 13 10 8 8 7 8 8 8 10 9 10
17 16 16 13 13 10 10 9 9 8 8 8 7 7 5 4 2 7 8 5 6 6 7 9 11 12 11

GFSFLT2_925_spd_087.txt.gz
Wind_Speed
7 8 7 7 9 8 9 9 9 8 7 7 6 5 6 7 8 3 4 7 8 7 10 11 14 16 14
8 9 9 8 10 8 8 8 8 8 7 7 5 6 7 8 10 5 5 6 6 6 8 10 12 18 4
5 8 9 8 8 8 9 9 9 8 6 4 4 5 6 8 9 6 4 4 4 5 6 8 9 18 23
9 7 8 8 9 9 9 11 11 10 9 8 7 5 7 7 8 6 6 7 6 4 5 6 7 8 13
8 7 7 8 8 7 10 11 12 11 10 8 6 6 7 7 7 6 6 7 7 6 5 4 3 5 7
9 9 10 10 11 10 10 6 3 9 10 8 10 9 9 7 9 7 6 6 6 6 6 6 4 2 1
10 12 11 15 11 11 12 8 4 5 8 5 8 8 10 9 7 5 3 3 3 2 2 2 2 2 2
11 8 11 9 11 9 9 9 6 7 8 4 5 4 6 4 5 5 2 1 1 2 2 2 2 2 2
12 11 10 9 9 8 10 9 5 5 7 6 3 5 3 3 4 5 3 2 1 3 4 5 5 5 2
6 6 7 10 11 10 9 11 5 4 6 7 5 5 2 4 6 5 5 4 5 4 3 2 3 3 3
8 7 8 5 8 10 10 11 10 3 4 9 6 5 3 3 5 7 7 7 7 7 7 4 3 3 3
11 11 10 11 9 8 9 10 10 8 7 10 5 7 6 4 3 5 7 8 8 8 8 7 6 7 7
14 12 13 12 11 10 9 8 7 7 7 9 8 7 7 5 3 3 3 5 8 9 10 10 9 9 9
14 13 14 15 14 12 10 10 7 6 7 8 8 7 6 7 7 6 6 3 4 7 8 9 8 8 10
14 16 15 15 14 13 11 11 7 10 7 7 8 8 9 8 7 8 8 8 7 9 9 10 11 11 12
17 18 18 17 17 15 14 13 11 10 10 8 6 4 2 5 12 11 8 8 7 8 8 8 10 8 9
22 22 20 18 16 16 15 14 12 11 11 10 10 8 3 2 2 5 11 7 8 8 8 9 11 12 13

GFSFLT2_925_spd_090.txt.gz
Wind_Speed
6 9 8 7 7 6 7 9 9 9 7 9 6 7 6 6 7 8 6 7 8 8 10 11 14 14 17
10 11 9 8 7 6 7 9 9 8 8 7 6 5 6 6 7 11 5 6 7 7 9 11 13 20 15
9 10 11 10 9 9 10 11 9 8 6 6 6 5 6 7 6 9 6 6 6 7 8 9 12 15 24
13 11 11 10 11 11 11 10 10 9 9 9 7 4 6 7 7 8 6 8 8 8 8 8 9 10 14
11 9 10 10 11 9 10 9 9 10 11 10 9 8 10 9 7 7 6 8 8 9 8 7 4 6 9
17 13 16 13 12 11 9 6 2 9 10 10 9 8 9 10 9 9 7 7 8 7 7 6 5 2 3
17 17 15 16 14 11 12 9 6 4 10 4 9 9 9 11 9 7 5 5 4 3 3 3 1 2 1
14 13 14 12 13 12 11 12 8 8 10 7 10 8 7 7 5 5 3 2 1 2 2 1 2 4 3
12 12 12 13 11 11 13 15 6 7 10 7 8 7 5 5 5 5 4 1 2 2 4 4 4 3 3
11 13 13 12 11 14 15 16 6 5 10 11 9 7 3 5 6 6 6 5 6 4 3 2 2 2 3
11 11 10 12 13 13 14 16 18 6 10 14 9 10 5 4 7 7 8 8 8 6 5 3 2 1 1
15 14 14 12 11 12 12 13 15 15 12 14 7 11 9 6 4 7 9 9 8 7 7 5 4 3 4
19 18 16 16 13 12 11 10 12 12 11 11 10 13 12 7 5 6 5 7 8 8 9 7 7 7 7
19 17 17 18 16 15 13 14 12 11 10 11 10 10 11 10 9 7 7 4 5 6 6 6 7 6 6
21 21 20 18 18 16 16 17 11 12 12 11 10 10 10 9 10 11 11 9 7 6 7 7 7 7 8
22 24 23 20 21 19 18 20 18 14 13 13 13 9 7 10 14 10 8 8 7 7 6 7 8 4 5
25 26 24 21 22 23 23 20 18 16 15 13 14 11 3 3 3 9 15 13 11 10 8 8 7 7 8

GFSFLT2_925_spd_093.txt.gz
Wind_Speed
9 14 14 12 9 7 8 8 8 9 10 9 9 10 8 6 6 7 10 10 8 7 10 12 13 16 23
12 14 13 13 11 9 8 9 10 11 11 10 9 10 7 7 7 9 9 6 7 7 9 10 13 15 22
11 13 12 14 12 12 11 11 11 12 12 9 9 8 8 7 7 9 8 8 7 8 10 10 11 13 17
14 13 13 12 14 13 11 13 14 14 12 12 10 8 8 8 7 7 7 8 6 9 10 10 9 11 13
15 12 12 10 14 12 15 14 13 13 12 12 11 10 10 10 9 8 8 9 8 8 10 10 7 8 10
18 13 18 17 15 15 14 9 4 10 12 12 12 12 12 11 9 8 10 7 9 8 5 6 5 4 6
22 21 18 20 18 16 16 12 9 7 13 7 10 11 11 10 10 8 7 7 6 4 2 2 2 2 2
21 19 18 15 17 18 17 14 9 8 10 3 7 8 8 11 11 7 5 4 3 2 3 3 5 4 3
16 16 15 14 15 16 16 18 6 10 13 9 9 7 7 9 9 7 6 4 4 3 4 3 3 3 4
15 14 15 15 16 18 17 20 11 5 14 11 9 8 2 7 9 9 8 6 6 4 2 2 3 3 4
15 15 16 17 18 19 17 19 19 11 8 15 12 12 3 3 9 11 11 10 9 6 5 4 2 2 2
18 18 19 19 19 18 16 17 16 17 10 15 6 14 9 6 4 11 12 11 11 10 8 5 4 3 2
24 25 23 19 18 17 16 14 13 13 13 15 17 9 12 6 5 7 8 11 12 10 9 8 7 6 6
26 23 21 21 21 19 17 15 14 13 14 15 12 10 15 11 7 8 8 3 10 9 8 7 7 6 6
25 25 25 26 25 21 18 19 12 15 15 15 13 13 11 11 10 11 11 10 8 6 6 6 6 7 8
28 29 28 28 27 24 21 23 20 16 18 17 16 10 7 10 13 9 12 13 11 9 7 6 5 6 6
29 29 29 28 24 26 25 23 22 18 17 17 17 13 3 2 2 14 14 11 11 10 8 7 5 3 6

GFSFLT2_925_spd_096.txt.gz
Wind_Speed
11 16 19 18 16 13 9 9 10 9 9 9 11 10 10 10 10 9 9 12 9 10 12 14 15 16 17
14 16 17 18 15 13 9 9 10 11 12 12 11 9 9 10 8 8 9 9 9 8 9 10 12 15 17
11 16 13 20 17 14 13 13 12 12 13 13 12 9 10 10 9 8 8 8 9 10 10 11 10 12 14
16 15 16 16 20 18 14 16 15 15 15 16 14 12 9 12 10 9 9 7 10 10 10 11 9 9 12
13 11 14 13 20 16 18 17 15 18 17 17 16 14 13 14 11 10 9 8 10 10 11 10 8 7 9
16 12 16 21 21 22 17 8 4 14 18 16 15 15 15 14 11 10 10 8 8 8 7 5 6 6 5
24 26 21 26 22 20 18 16 11 8 17 9 12 13 13 11 10 9 9 8 6 6 3 2 1 2 3
26 27 25 20 20 22 22 20 12 10 13 6 9 9 13 12 12 11 9 6 3 1 4 2 2 2 2
20 20 19 18 21 22 21 20 6 9 15 8 7 9 10 12 12 11 9 6 4 3 3 2 1 1 3
19 18 17 18 19 23 24 21 9 5 15 12 9 8 3 10 12 12 12 9 6 6 3 3 0 2 4
21 20 20 21 21 21 21 21 19 9 7 18 11 12 5 3 9 12 12 9 10 8 5 2 2 1 2
24 24 24 24 23 20 20 18 17 18 15 18 6 16 10 6 5 12 13 13 12 9 6 6 5 3 2
28 27 27 24 22 20 18 17 16 16 17 17 20 12 13 6 5 8 10 14 13 10 8 9 8 7 6
26 25 23 23 24 22 19 18 16 14 16 17 19 16 15 14 8 10 11 5 12 11 10 10 9 8 7
27 26 27 25 25 23 20 21 12 18 16 16 15 14 13 15 12 10 14 8 5 10 9 8 7 7 7
27 27 28 28 26 25 22 21 20 17 21 20 17 13 11 11 14 11 14 11 11 10 8 7 7 8 7
26 26 24 27 23 24 24 22 21 19 19 19 21 15 3 3 6 18 14 13 14 12 11 8 4 6 5

GFSFLT2_925_spd_099.txt.gz
Wind_Speed
13 17 24 24 20 17 15 14 12 12 11 10 10 12 10 10 9 9 10 9 9 7 7 8 9 12 15
14 19 21 25 20 18 17 14 12 12 12 10 9 10 9 8 8 8 8 7 7 8 8 10 10 11 13
13 19 16 25 22 20 18 15 12 12 11 12 12 11 9 7 8 8 8 7 8 8 9 10 11 11 11
17 16 20 26 27 25 19 19 16 15 12 13 13 12 10 8 10 10 9 8 7 8 9 10 10 10 12
14 11 15 18 24 20 19 19 16 17 15 17 17 16 12 10 12 11 10 9 7 8 9 9 8 8 9
16 13 17 20 23 23 19 9 3 16 20 20 17 18 15 14 15 13 11 8 7 8 8 5 4 6 6
26 22 20 25 25 23 25 18 12 9 20 14 17 17 15 15 15 13 11 7 5 5 5 1 1 2 3
32 29 24 22 18 26 27 21 13 13 17 9 12 14 15 16 16 13 10 7 3 1 2 1 1 2 3
22 22 17 20 22 26 24 21 6 10 20 9 10 11 13 16 16 13 9 7 5 5 3 1 2 2 2
22 18 18 19 22 26 28 23 13 7 20 17 13 11 4 12 15 14 12 10 7 7 6 3 2 3 3
23 24 23 25 25 25 26 31 25 9 12 24 15 15 6 5 9 14 14 13 13 10 8 5 3 3 4
23 24 26 25 27 24 22 22 22 19 16 21 8 17 12 7 5 13 15 14 15 13 10 7 7 5 4
25 26 29 28 24 22 20 20 18 14 15 18 20 15 14 7 7 10 13 16 16 15 13 10 10 9 7
23 23 25 24 26 26 23 23 21 16 19 17 17 15 15 13 8 11 12 6 20 17 13 12 11 10 8
24 25 26 27 28 26 24 25 14 18 18 17 17 15 13 12 11 9 16 10 9 17 15 13 11 10 9
23 25 24 26 24 28 24 27 20 22 20 21 19 15 9 10 13 13 14 14 10 14 13 11 10 10 10
24 24 23 20 21 22 21 23 20 20 22 22 24 18 3 3 8 18 15 16 16 16 14 10 6 10 9

GFSFLT2_925_spd_102.txt.gz
Wind_Speed
16 20 28 33 30 24 22 20 20 20 17 17 14 14 14 14 12 10 9 8 7 7 6 6 9 10 12
14 18 23 28 27 25 25 23 22 19 18 16 14 11 13 12 11 9 9 7 6 7 8 7 9 10 12
11 18 16 30 30 28 28 26 23 21 18 17 14 13 11 11 11 11 9 8 7 6 7 8 10 11 12
18 18 23 28 29 27 25 26 25 20 18 17 13 12 11 13 13 12 10 7 7 6 7 8 10 10 11
12 10 16 19 30 28 22 28 25 24 21 19 17 17 16 16 18 13 11 9 9 7 7 8 10 9 9
19 19 24 23 25 27 21 13 6 24 22 21 21 21 18 19 18 15 12 10 8 5 6 8 7 5 6
25 24 23 33 37 30 28 24 13 15 29 20 23 22 21 20 18 16 14 11 8 6 5 6 5 3 3
31 30 32 37 44 36 34 29 18 15 23 9 15 19 19 19 18 17 15 12 8 5 5 8 4 2 2
26 30 29 27 33 33 29 23 7 11 25 12 12 13 15 18 19 17 15 12 10 8 9 6 6 5 2
21 22 23 26 28 33 35 25 9 6 20 18 18 13 5 14 19 19 16 13 12 11 8 7 6 5 4
24 24 24 27 26 30 30 34 26 8 17 26 16 18 7 6 14 20 19 17 15 13 10 8 6 5 4
22 24 27 28 28 29 24 29 24 22 19 31 12 19 13 8 7 19 20 18 19 18 13 10 8 6 5
22 24 28 29 29 24 23 22 20 18 20 24 20 21 20 11 11 16 21 21 22 20 16 13 10 9 8
24 23 26 22 25 29 25 24 21 16 21 21 20 17 21 13 12 20 18 12 27 23 18 14 13 11 10
23 24 23 25 27 29 25 26 15 18 19 18 20 18 14 16 11 17 23 14 23 24 20 18 15 12 12
21 23 24 25 22 25 28 24 19 19 17 23 23 18 11 11 14 18 21 16 18 24 20 16 13 14 14
24 24 22 22 23 22 21 22 19 21 21 25 26 20 3 3 11 15 21 20 21 23 19 13 10 13 12

GFSFLT2_925_spd_105.txt.gz
Wind_Speed
21 28 28 29 34 39 38 35 28 25 28 28 23 22 24 23 21 19 16 16 13 11 9 10 9 8 9
22 22 26 30 35 39 35 32 29 28 27 25 24 23 22 22 22 21 17 14 13 12 10 10 9 10 10
15 19 19 24 28 32 32 29 27 27 26 25 24 21 21 20 20 19 17 14 13 11 10 9 9 11 10
17 16 19 24 26 28 26 31 31 29 28 26 23 23 20 18 18 18 17 14 12 11 10 9 11 12 11
11 9 15 14 26 26 23 24 28 33 30 26 24 22 20 18 20 21 17 14 13 11 11 9 11 11 9
18 17 21 24 25 25 20 13 4 29 30 27 26 26 25 23 24 23 19 17 14 13 11 8 9 7 6
19 23 22 32 36 30 31 31 23 27 35 20 29 28 26 26 24 23 21 18 16 14 9 7 8 7 7
27 26 34 34 40 44 43 31 22 27 33 10 27 25 26 27 25 25 22 20 17 13 9 8 9 7 3
27 26 33 34 36 32 27 26 8 14 33 20 18 22 25 28 28 24 22 20 17 13 11 10 10 10 6
30 26 26 33 37 39 39 30 13 4 25 20 20 16 6 21 27 26 22 19 17 14 13 11 10 12 10
29 30 28 29 35 38 41 38 28 7 31 30 21 21 7 6 18 28 26 22 18 16 13 11 11 10 10
25 25 26 29 34 37 37 40 41 28 33 43 19 30 15 8 8 25 26 25 23 22 19 15 10 10 9
21 22 28 29 32 32 35 31 29 24 27 41 27 36 32 15 11 17 17 24 26 26 22 19 15 14 12
22 25 25 24 24 29 21 30 24 22 29 32 28 26 24 16 20 20 23 15 30 28 24 20 17 15 14
22 23 22 24 23 27 23 20 15 20 18 20 22 24 23 23 13 21 25 18 25 29 26 20 19 17 15
20 20 20 20 19 24 25 21 16 19 20 25 27 21 16 10 10 21 19 19 18 28 23 16 14 19 16
20 21 21 20 20 20 19 18 15 18 21 30 24 21 8 5 8 16 24 21 21 21 21 16 11 18 18

GFSFLT2_925_spd_108.txt.gz
Wind_Speed
22 21 26 29 32 30 37 42 43 45 43 40 35 32 32 34 30 25 23 21 19 17 16 14 12 12 11
19 27 29 31 33 35 38 42 39 41 43 40 34 32 34 29 26 25 24 21 19 18 17 15 15 14 14
28 23 25 28 26 26 30 34 37 40 40 34 34 34 28 27 26 25 23 21 21 19 16 15 15 16 15
18 18 20 21 22 21 20 28 31 32 35 33 32 29 28 26 25 23 23 22 22 19 16 15 16 15 16
9 9 10 9 19 17 19 22 26 32 32 32 32 30 27 26 24 24 22 23 21 18 15 15 15 15 16
14 12 18 20 20 21 18 11 3 31 31 28 32 30 30 27 27 24 22 22 21 17 17 16 16 14 12
21 19 19 21 24 23 26 27 24 26 36 23 37 32 32 30 28 25 23 23 20 18 17 16 14 12 12
22 23 25 24 31 33 37 41 23 26 37 14 27 25 34 34 30 26 25 24 22 20 18 16 14 12 11
26 28 29 30 29 30 23 18 5 12 37 25 20 20 25 32 31 28 27 26 24 22 19 18 16 13 11
29 29 26 26 30 34 30 25 17 5 23 27 21 23 6 21 31 30 27 27 26 23 20 19 16 12 10
29 28 27 26 28 30 36 37 26 16 27 37 20 22 8 8 19 34 32 29 25 22 21 20 16 14 11
27 27 25 24 27 30 36 40 37 41 34 52 24 29 15 8 8 24 32 27 27 24 24 20 17 16 13
21 27 26 27 29 28 34 33 36 34 30 47 40 38 33 16 13 19 26 28 32 26 26 25 20 18 17
23 28 28 27 26 27 26 26 22 18 26 36 33 40 24 21 26 24 27 16 32 28 27 24 17 16 15
23 26 25 22 23 25 22 19 15 13 18 25 21 24 24 29 15 27 29 20 30 27 26 22 19 17 15
25 26 23 20 20 20 21 18 18 19 17 17 27 18 14 10 15 24 22 20 25 29 24 21 18 18 16
23 25 24 20 17 17 16 15 11 15 17 26 22 19 7 5 5 21 25 22 24 25 24 18 16 22 18

GFSFLT2_925_spd_111.txt.gz
Wind_Speed
23 26 30 28 28 26 27 28 29 31 33 34 37 39 44 44 41 35 37 32 30 22 19 17 14 13 12
22 21 25 29 30 30 33 34 34 37 40 41 40 41 46 46 41 36 36 35 25 21 20 18 17 15 14
16 14 22 27 28 32 36 36 39 43 44 39 37 38 43 43 41 34 38 29 24 23 22 21 18 17 16
16 14 13 19 21 19 24 32 34 35 34 34 32 40 41 33 30 35 30 24 24 25 23 21 19 18 16
13 10 6 6 10 16 20 20 24 25 24 27 33 34 29 33 37 33 27 26 26 25 24 22 20 18 16
16 13 14 14 17 17 14 7 2 22 27 26 33 32 36 37 36 33 29 27 26 25 24 22 20 18 17
19 18 18 17 20 19 19 16 14 16 30 19 31 28 34 34 36 34 32 29 27 25 24 21 18 18 16
22 24 24 26 28 27 22 28 22 18 28 12 27 24 33 36 37 37 33 31 29 26 25 22 19 16 16
25 26 27 27 27 28 22 17 7 11 28 15 15 20 25 33 36 38 35 33 31 28 26 24 20 18 16
30 28 27 26 25 26 24 20 17 5 22 21 18 18 4 22 33 37 36 34 32 30 27 23 21 20 16
28 31 27 23 22 24 26 27 23 22 18 35 22 20 8 7 25 36 40 36 35 31 28 24 24 20 17
21 22 25 22 22 26 28 32 31 35 27 35 21 30 20 8 6 30 32 37 38 36 32 26 22 20 18
22 23 22 27 27 29 31 35 37 34 35 36 39 33 31 18 11 19 27 31 38 37 34 33 30 25 22
22 22 25 25 25 26 26 26 25 25 29 31 40 36 27 25 27 21 31 18 36 36 34 31 28 27 26
21 25 24 24 27 26 25 25 21 19 15 24 31 35 26 23 14 27 30 21 36 34 33 27 26 26 23
21 23 24 23 25 25 24 22 20 19 16 20 23 19 11 7 19 24 25 24 33 35 31 26 23 26 25
21 23 25 23 25 23 21 19 19 19 19 22 24 18 9 8 7 26 24 29 33 30 27 25 22 28 28

GFSFLT2_925_spd_114.txt.gz
Wind_Speed
19 23 21 24 28 32 33 31 32 33 32 32 31 31 33 35 32 34 35 31 35 38 34 27 22 17 16
21 22 24 28 34 34 34 34 31 31 33 33 31 30 34 37 37 38 36 35 37 42 35 26 21 19 16
16 20 22 23 18 21 24 34 36 32 35 36 37 40 40 40 39 38 38 39 42 44 34 26 22 20 17
14 16 17 20 19 17 17 23 28 30 33 34 37 38 37 38 38 39 40 45 47 39 29 27 25 21 19
13 14 14 17 16 18 16 21 23 25 27 30 30 31 33 33 33 40 44 48 38 31 30 27 24 22 22
13 14 15 17 19 21 20 10 3 14 16 26 23 25 27 28 36 42 45 33 33 30 28 27 25 25 23
16 16 20 20 22 22 21 19 18 20 18 16 20 25 29 32 35 32 32 35 32 29 28 26 26 25 23
19 22 22 23 24 23 24 26 26 25 23 7 18 24 29 32 34 35 34 36 33 32 29 27 26 25 23
19 21 23 24 24 26 21 18 14 14 19 18 11 20 19 28 33 37 37 36 35 33 30 28 28 25 21
29 32 25 24 22 22 24 20 16 13 19 17 13 14 4 20 31 33 38 39 38 35 33 31 29 27 25
26 26 27 25 23 22 21 21 22 21 21 21 14 19 11 4 19 33 36 35 37 36 35 32 30 32 29
20 22 23 25 25 27 29 33 30 32 32 29 18 21 15 7 6 24 30 34 39 38 38 35 31 30 28
19 20 20 24 27 26 28 31 29 29 30 32 34 29 27 22 12 14 19 28 37 39 38 39 37 34 27
21 24 23 21 23 23 22 24 28 26 24 27 30 31 30 29 24 20 25 18 35 35 38 36 36 38 34
24 23 23 24 24 24 23 21 23 24 24 23 26 31 34 31 20 23 26 25 32 34 31 31 34 39 34
24 25 23 24 25 28 23 23 23 24 22 21 21 18 18 23 30 22 25 26 27 33 32 26 25 34 35
24 21 24 23 23 24 24 24 25 23 24 22 20 19 10 10 12 28 26 26 27 27 31 33 28 35 37

GFSFLT2_925_spd_117.txt.gz
Wind_Speed
18 24 24 28 28 22 29 39 41 42 43 42 45 40 37 38 42 39 35 34 30 31 28 29 39 35 31
17 18 23 23 26 24 18 28 34 33 36 35 34 34 35 35 32 34 33 32 31 32 32 35 39 38 32
15 19 21 21 25 21 20 20 17 19 23 31 36 32 32 30 32 31 35 36 35 35 35 43 44 41 32
14 15 18 21 19 20 22 21 26 24 19 19 19 26 28 31 36 40 42 42 40 36 40 46 48 42 32
12 12 13 16 17 19 20 25 27 18 19 18 17 18 22 26 32 36 38 38 39 38 44 48 50 40 31
10 10 12 16 18 20 19 18 5 10 24 23 22 25 23 22 24 27 31 34 38 42 50 54 44 34 28
14 15 17 20 20 19 18 18 20 24 26 25 24 26 28 26 26 25 24 25 32 43 48 43 34 31 26
15 18 19 23 23 22 23 24 23 24 23 15 21 24 28 28 25 26 25 26 36 43 36 34 32 29 25
15 16 19 19 19 20 20 17 13 18 22 20 16 23 25 29 26 24 25 27 31 33 35 33 30 26 26
17 24 21 22 18 16 19 14 15 10 7 12 15 13 7 14 23 26 28 32 35 38 38 33 30 30 30
18 21 22 23 22 21 19 20 18 18 19 22 18 21 13 12 17 18 25 30 34 38 38 35 35 35 33
16 20 23 24 23 23 26 27 26 26 27 25 17 19 20 18 10 19 25 29 32 35 37 37 36 34 31
17 19 23 24 24 23 27 27 26 23 21 25 29 26 25 23 20 19 19 23 32 34 36 38 37 37 31
18 21 23 23 23 22 23 26 23 26 24 21 26 31 28 27 26 25 26 16 25 32 36 36 37 40 40
19 21 18 20 19 20 23 22 21 21 23 25 24 30 33 31 25 26 27 26 25 29 31 27 32 39 41
19 18 20 20 21 21 20 21 21 21 21 26 23 22 22 26 35 27 25 28 26 31 30 26 25 31 37
21 23 22 21 20 20 19 20 21 22 23 25 23 19 10 11 18 22 28 24 25 25 31 28 24 32 40